When you browse on this site, cookies collect data to enhance your experience and personalize the content and advertising you see.
Visit our Privacy Policy to learn more. By continuing to use the site, you agree to this use of cookies and data.
  • en France
  • Liste des pays
  • À 7 jours
  • Température de l'eau
  • Carte satellitaire
  • Carte météo
  • Widgets météo
  • user-avatar
    Se connecter

    Météo par heure à Dijon

    Ce jour, 26 Avril, Vendredi

    Heure Température Précipitation Vent Pression Humidité
    00:00 +3°C° 0 mm 3 m/s 734 mmHg 94%
    01:00 +3°C° 0 mm 3 m/s 734 mmHg 94%
    02:00 +3°C° 0 mm 3 m/s 734 mmHg 94%
    03:00 +3°C° 0 mm 3 m/s 734 mmHg 95%
    04:00 +4°C° 0 mm 3 m/s 735 mmHg 94%
    05:00 +4°C° 0 mm 3 m/s 735 mmHg 94%
    06:00 +4°C° 0 mm 3 m/s 735 mmHg 92%
    07:00 +5°C° 0 mm 3 m/s 736 mmHg 87%
    08:00 +7°C° 0 mm 4 m/s 736 mmHg 82%
    09:00 +10°C° 0 mm 4 m/s 736 mmHg 78%
    10:00 +11°C° 0.4 mm 3 m/s 737 mmHg 77%
    11:00 +12°C° 0.4 mm 3 m/s 737 mmHg 75%
    12:00 +13°C° 0.4 mm 3 m/s 737 mmHg 74%
    13:00 +13°C° 0.6 mm 3 m/s 737 mmHg 74%
    14:00 +14°C° 0.6 mm 3 m/s 737 mmHg 73%
    15:00 +15°C° 0.6 mm 2 m/s 736 mmHg 73%
    16:00 +14°C° 0.4 mm 2 m/s 737 mmHg 78%
    17:00 +13°C° 0.4 mm 2 m/s 737 mmHg 83%
    18:00 +12°C° 0.4 mm 2 m/s 737 mmHg 87%
    19:00 +10°C° 0 mm 2 m/s 738 mmHg 90%
    20:00 +9°C° 0 mm 3 m/s 738 mmHg 92%
    21:00 +7°C° 0 mm 3 m/s 739 mmHg 95%
    22:00 +7°C° 0 mm 3 m/s 739 mmHg 95%
    23:00 +8°C° 0 mm 3 m/s 739 mmHg 96%

    Demain, 27 Avril, Samedi

    Heure Température Précipitation Vent Pression Humidité
    00:00 +8°C° 0 mm 3 m/s 740 mmHg 96%
    01:00 +6°C° 0.2 mm 4 m/s 740 mmHg 96%
    02:00 +6°C° 0.2 mm 4 m/s 740 mmHg 95%
    03:00 +6°C° 0.2 mm 4 m/s 739 mmHg 94%
    04:00 +6°C° 0.1 mm 4 m/s 739 mmHg 94%
    05:00 +6°C° 0.1 mm 4 m/s 740 mmHg 94%
    06:00 +6°C° 0.1 mm 4 m/s 740 mmHg 94%
    07:00 +7°C° 0.2 mm 4 m/s 740 mmHg 94%
    08:00 +7°C° 0.2 mm 5 m/s 740 mmHg 93%
    09:00 +7°C° 0.2 mm 5 m/s 740 mmHg 93%
    10:00 +8°C° 0.3 mm 5 m/s 740 mmHg 92%
    11:00 +8°C° 0.3 mm 5 m/s 740 mmHg 90%
    12:00 +8°C° 0.3 mm 5 m/s 740 mmHg 89%
    13:00 +9°C° 0.2 mm 6 m/s 740 mmHg 82%
    14:00 +10°C° 0.2 mm 6 m/s 740 mmHg 74%
    15:00 +10°C° 0.2 mm 6 m/s 740 mmHg 67%
    16:00 +9°C° 0.2 mm 5 m/s 741 mmHg 72%
    17:00 +8°C° 0.2 mm 4 m/s 741 mmHg 78%
    18:00 +8°C° 0.2 mm 3 m/s 741 mmHg 84%
    19:00 +8°C° 0.3 mm 3 m/s 742 mmHg 86%
    20:00 +7°C° 0.3 mm 3 m/s 742 mmHg 89%
    21:00 +5°C° 0.3 mm 3 m/s 743 mmHg 92%
    22:00 +4°C° 0 mm 3 m/s 742 mmHg 93%
    23:00 +4°C° 0 mm 3 m/s 742 mmHg 93%

    Après-demain, 28 Avril, Dimanche

    Heure Température Précipitation Vent Pression Humidité
    00:00 +3°C° 0 mm 3 m/s 742 mmHg 94%
    01:00 +3°C° 0 mm 3 m/s 742 mmHg 94%
    02:00 +3°C° 0 mm 3 m/s 742 mmHg 94%
    03:00 +3°C° 0 mm 3 m/s 742 mmHg 94%
    04:00 +3°C° 0.1 mm 3 m/s 742 mmHg 94%
    05:00 +4°C° 0.1 mm 3 m/s 742 mmHg 94%
    06:00 +4°C° 0.1 mm 3 m/s 742 mmHg 94%
    07:00 +5°C° 0.2 mm 4 m/s 742 mmHg 90%
    08:00 +6°C° 0.2 mm 5 m/s 741 mmHg 86%
    09:00 +7°C° 0.2 mm 5 m/s 741 mmHg 82%
    10:00 +8°C° 0.3 mm 6 m/s 741 mmHg 79%
    11:00 +8°C° 0.3 mm 6 m/s 741 mmHg 77%
    12:00 +9°C° 0.3 mm 6 m/s 741 mmHg 74%
    13:00 +9°C° 0.3 mm 6 m/s 741 mmHg 76%
    14:00 +8°C° 0.3 mm 6 m/s 740 mmHg 78%
    15:00 +8°C° 0.3 mm 6 m/s 740 mmHg 79%
    16:00 +8°C° 0.3 mm 5 m/s 740 mmHg 83%
    17:00 +7°C° 0.3 mm 4 m/s 740 mmHg 87%
    18:00 +7°C° 0.3 mm 3 m/s 740 mmHg 90%
    19:00 +5°C° 0 mm 3 m/s 740 mmHg 92%
    20:00 +5°C° 0 mm 2 m/s 740 mmHg 94%
    21:00 +4°C° 0 mm 2 m/s 740 mmHg 95%
    22:00 +4°C° 0 mm 2 m/s 740 mmHg 95%
    23:00 +3°C° 0 mm 2 m/s 740 mmHg 96%

    29 Avril, Lundi

    Heure Température Précipitation Vent Pression Humidité
    00:00 +3°C° 0 mm 2 m/s 740 mmHg 96%
    01:00 +3°C° 0.2 mm 2 m/s 740 mmHg 96%
    02:00 +3°C° 0.2 mm 2 m/s 740 mmHg 97%
    03:00 +2°C° 0.2 mm 2 m/s 740 mmHg 97%
    04:00 +4°C° 0 mm 1 m/s 740 mmHg 97%
    05:00 +5°C° 0 mm 1 m/s 740 mmHg 96%
    06:00 +6°C° 0 mm 1 m/s 740 mmHg 96%
    07:00 +7°C° 0.1 mm 1 m/s 740 mmHg 94%
    08:00 +8°C° 0.1 mm 1 m/s 740 mmHg 91%
    09:00 +9°C° 0.1 mm 1 m/s 740 mmHg 89%
    10:00 +9°C° 0.7 mm 2 m/s 740 mmHg 86%
    11:00 +10°C° 0.7 mm 2 m/s 740 mmHg 83%
    12:00 +12°C° 0.7 mm 2 m/s 740 mmHg 80%
    13:00 +12°C° 0.7 mm 2 m/s 740 mmHg 79%
    14:00 +12°C° 0.7 mm 2 m/s 740 mmHg 78%
    15:00 +12°C° 0.7 mm 2 m/s 739 mmHg 77%
    16:00 +12°C° 0.3 mm 2 m/s 739 mmHg 81%
    17:00 +10°C° 0.3 mm 2 m/s 739 mmHg 85%
    18:00 +9°C° 0.3 mm 2 m/s 740 mmHg 89%
    19:00 +8°C° 0.2 mm 2 m/s 740 mmHg 90%
    20:00 +7°C° 0.2 mm 2 m/s 740 mmHg 92%
    21:00 +5°C° 0.2 mm 2 m/s 740 mmHg 93%
    22:00 +5°C° 0 mm 2 m/s 740 mmHg 93%
    23:00 +5°C° 0 mm 2 m/s 740 mmHg 94%

    30 Avril, Mardi

    Heure Température Précipitation Vent Pression Humidité
    00:00 +4°C° 0 mm 2 m/s 740 mmHg 94%
    01:00 +4°C° 0 mm 2 m/s 740 mmHg 94%
    02:00 +4°C° 0 mm 2 m/s 740 mmHg 94%
    03:00 +3°C° 0 mm 2 m/s 740 mmHg 94%
    04:00 +4°C° 0 mm 2 m/s 740 mmHg 94%
    05:00 +5°C° 0 mm 2 m/s 740 mmHg 93%
    06:00 +5°C° 0 mm 2 m/s 740 mmHg 93%
    07:00 +8°C° 0 mm 3 m/s 740 mmHg 87%
    08:00 +10°C° 0 mm 3 m/s 740 mmHg 80%
    09:00 +12°C° 0 mm 4 m/s 740 mmHg 74%
    10:00 +13°C° 0.1 mm 4 m/s 739 mmHg 71%
    11:00 +14°C° 0.1 mm 5 m/s 739 mmHg 68%
    12:00 +15°C° 0.1 mm 5 m/s 739 mmHg 65%
    13:00 +14°C° 0.1 mm 5 m/s 739 mmHg 69%
    14:00 +14°C° 0.1 mm 5 m/s 738 mmHg 74%
    15:00 +14°C° 0.1 mm 5 m/s 738 mmHg 79%
    16:00 +13°C° 0 mm 4 m/s 738 mmHg 81%
    17:00 +13°C° 0 mm 4 m/s 738 mmHg 84%
    18:00 +12°C° 0 mm 3 m/s 738 mmHg 87%
    19:00 +11°C° 0 mm 3 m/s 738 mmHg 89%
    20:00 +10°C° 0 mm 3 m/s 739 mmHg 91%
    21:00 +8°C° 0 mm 3 m/s 739 mmHg 93%
    22:00 +8°C° 0 mm 3 m/s 739 mmHg 92%
    23:00 +7°C° 0 mm 2 m/s 738 mmHg 92%

    1 Mai, Mercredi

    Heure Température Précipitation Vent Pression Humidité
    00:00 +7°C° 0 mm 2 m/s 738 mmHg 92%
    01:00 +6°C° 0 mm 2 m/s 738 mmHg 92%
    02:00 +6°C° 0 mm 2 m/s 738 mmHg 91%
    03:00 +5°C° 0 mm 2 m/s 738 mmHg 91%
    04:00 +6°C° 0 mm 2 m/s 738 mmHg 90%
    05:00 +6°C° 0 mm 2 m/s 738 mmHg 88%
    06:00 +7°C° 0 mm 2 m/s 738 mmHg 87%
    07:00 +9°C° 0 mm 2 m/s 738 mmHg 81%
    08:00 +11°C° 0 mm 3 m/s 738 mmHg 76%
    09:00 +14°C° 0 mm 3 m/s 738 mmHg 70%
    10:00 +14°C° 0 mm 3 m/s 738 mmHg 67%
    11:00 +16°C° 0 mm 3 m/s 738 mmHg 64%
    12:00 +17°C° 0 mm 3 m/s 737 mmHg 62%
    13:00 +18°C° 0 mm 3 m/s 737 mmHg 63%
    14:00 +18°C° 0 mm 3 m/s 737 mmHg 64%
    15:00 +18°C° 0 mm 3 m/s 737 mmHg 65%
    16:00 +17°C° 0 mm 3 m/s 737 mmHg 70%
    17:00 +16°C° 0 mm 3 m/s 737 mmHg 76%
    18:00 +15°C° 0 mm 2 m/s 737 mmHg 82%
    19:00 +13°C° 0 mm 2 m/s 737 mmHg 84%
    20:00 +12°C° 0 mm 2 m/s 737 mmHg 86%
    21:00 +9°C° 0 mm 2 m/s 737 mmHg 89%
    22:00 +9°C° 0 mm 2 m/s 737 mmHg 89%
    23:00 +8°C° 0 mm 2 m/s 737 mmHg 90%
    Voir plus